This demonstration page uses our WeatherBlox Daily Observations layout. Learn more.

Left ArrowRight Arrow

Hourly Observations for January 7, 2016

Temp ( °F °C ) Dew Point ( °F °C ) Humidity (%) Winds ( mph kmh ) Pressure ( in mb ) Visibility ( mi km ) Precip ( " mm )
12:59 am 00:59 Cloudy 44 6.7 36 2.2 73 73 NE 8 13 30.36 1028 10 16 0.00 0.00
1:59 am 01:59 Cloudy 45 7.2 37 2.8 74 74 NE 9 15 30.35 1028 10 16 0.00 0.00
2:44 am 02:44 Mostly Cloudy 45 7.2 38 3.3 77 77 NE 10 17 30.33 1027 10 16 0.00 0.00
2:59 am 02:59 Mostly Cloudy 45 7.2 38 3.3 77 77 NE 9 15 30.32 1027 10 16 0.00 0.00
3:26 am 03:26 Cloudy 45 7.2 38 3.3 77 77 NNE 8 13 30.33 1027 10 16 0.00 0.00
3:59 am 03:59 Cloudy 45 7.2 38 3.3 77 77 NNE 10 17 30.32 1027 10 16 0.00 0.00
4:59 am 04:59 Cloudy 46 7.8 39 3.9 77 77 NNE 8 13 30.32 1027 10 16 0.00 0.00
5:59 am 05:59 Cloudy 46 7.8 40 4.4 79 79 NNE 8 13 30.31 1027 10 16 0.00 0.00
6:59 am 06:59 Cloudy 46 7.8 40 4.4 79 79 NNE 13 20 30.31 1026 10 16 0.00 0.00
7:49 am 07:49 Cloudy 47 8.3 40 4.4 77 77 NNE 12 19 30.30 1026 10 16 0.00 0.00
7:59 am 07:59 Cloudy 47 8.3 40 4.4 77 77 NNE 12 19 30.31 1026 10 16 0.00 0.00
8:22 am 08:22 Cloudy 47 8.3 41 5 80 80 NNE 9 15 30.30 1026 10 16 0.00 0.00
8:59 am 08:59 Cloudy 48 8.9 41 5 77 77 NNE 12 19 30.30 1026 10 16 0.00 0.00
9:59 am 09:59 Cloudy 50 10 41 5 71 71 NNE 13 20 30.29 1026 10 16 0.00 0.00
10:40 am 10:40 Cloudy 50 10 41 5 71 71 NNE 12 19 30.27 1025 10 16 0.00 0.00
10:59 am 10:59 Cloudy 50 10 42 5.6 74 74 NNE 10 17 30.27 1025 10 16 0.00 0.00
11:59 am 11:59 Cloudy 50 10 42 5.6 74 74 N 10 17 30.23 1024 10 16 0.00 0.00
12:59 pm 12:59 Cloudy 50 10 41 5 71 71 NNE 13 20 30.19 1022 10 16 0.00 0.00
1:59 pm 13:59 Cloudy 49 9.4 40 4.4 71 71 NNE 14 22 30.17 1022 10 16 0.00 0.00
2:59 pm 14:59 Cloudy 49 9.4 40 4.4 71 71 N 14 22 30.17 1022 10 16 0.00 0.00
3:59 pm 15:59 Cloudy 48 8.9 40 4.4 74 74 N 13 20 30.17 1022 10 16 0.00 0.00
4:59 pm 16:59 Cloudy 47 8.3 41 5 80 80 N 14 22 30.18 1022 10 16 0.00 0.00
5:59 pm 17:59 Cloudy 47 8.3 41 5 80 80 N 10 17 30.19 1022 10 16 0.00 0.00
6:59 pm 18:59 Cloudy 47 8.3 39 3.9 74 74 N 13 20 30.19 1022 10 16 0.00 0.00
7:59 pm 19:59 Cloudy 47 8.3 39 3.9 74 74 N 13 20 30.20 1023 10 16 0.00 0.00
8:59 pm 20:59 Cloudy 47 8.3 40 4.4 77 77 N 12 19 30.18 1022 10 16 0.00 0.00
9:59 pm 21:59 Cloudy 48 8.9 43 6.1 83 83 NNE 12 19 30.15 1021 10 16 0.00 0.00
10:59 pm 22:59 Cloudy 48 8.9 44 6.7 86 86 NE 10 17 30.13 1020 10 16 0.00 0.00
11:59 pm 23:59 Cloudy 48 8.9 44 6.7 86 86 NNE 7 11 30.12 1020 10 16 0.00 0.00

Powered by AerisWeather